QPF
0.01 0.00 0.00 0.01 0.01 0.01 0.01 0.01 0.02 0.03 0.03 0.03 0.04 0.03 0.03 0.03 0.04 0.04 0.05 0.05 0.07 0.09 0.09 0.07 0.07 0.07 0.07 0.07 0.07 0.06 0.05 0.05 0.04 0.02 0.01 0.01 0.01 0.01 0.02 0.02 0.03 0.03 0.03
0.01 0.01 0.01 0.01 0.01 0.01 0.01 0.01 0.02 0.04 0.05 0.04 0.04 0.03 0.03 0.03 0.03 0.04 0.03 0.04 0.05 0.07 0.08 0.09 0.08 0.08 0.07 0.06 0.06 0.06 0.05 0.04 0.03 0.02 0.02 0.01 0.01 0.01 0.01 0.02 0.02 0.02 0.02
0.01 0.01 0.02 0.02 0.02 0.01 0.01 0.02 0.03 0.04 0.06 0.06 0.04 0.03 0.03 0.03 0.03 0.03 0.03 0.03 0.04 0.05 0.06 0.06 0.07 0.07 0.07 0.05 0.04 0.05 0.05 0.04 0.03 0.03 0.03 0.02 0.02 0.01 0.01 0.02 0.02 0.02 0.02
0.01 0.01 0.02 0.02 0.03 0.03 0.03 0.03 0.03 0.04 0.05 0.06 0.04 0.03 0.03 0.03 0.03 0.03 0.03 0.03 0.03 0.04 0.04 0.05 0.05 0.06 0.06 0.06 0.04 0.03 0.04 0.04 0.03 0.03 0.03 0.03 0.02 0.02 0.02 0.02 0.02 0.02 0.02
0.01 0.01 0.01 0.01 0.02 0.02 0.03 0.03 0.04 0.04 0.05 0.06 0.04 0.04 0.04 0.03 0.03 0.03 0.03 0.03 0.03 0.04 0.04 0.04 0.04 0.04 0.05 0.06 0.05 0.04 0.04 0.04 0.04 0.03 0.03 0.03 0.03 0.03 0.03 0.02 0.01 0.02 0.02
0.01 0.01 0.01 0.01 0.02 0.02 0.02 0.03 0.04 0.05 0.06 0.05 0.04 0.04 0.04 0.04 0.05 0.05 0.05 0.04 0.04 0.03 0.03 0.03 0.04 0.04 0.04 0.05 0.05 0.05 0.04 0.04 0.03 0.03 0.02 0.02 0.02 0.02 0.02 0.01 0.01 0.01 0.01
0.02 0.02 0.01 0.01 0.02 0.02 0.02 0.03 0.03 0.04 0.05 0.05 0.04 0.04 0.04 0.05 0.06 0.06 0.06 0.05 0.04 0.03 0.03 0.03 0.04 0.04 0.04 0.03 0.04 0.04 0.04 0.04 0.03 0.02 0.02 0.01 0.01 0.01 0.01 0.01 0.01 0.01 0.01
0.02 0.01 0.01 0.01 0.01 0.02 0.02 0.03 0.03 0.03 0.03 0.03 0.03 0.03 0.03 0.04 0.05 0.05 0.05 0.05 0.04 0.04 0.04 0.04 0.05 0.05 0.04 0.04 0.04 0.03 0.03 0.03 0.02 0.02 0.01 0.01 0.01 0.01 0.01 0.01 0.01 0.01 0.01
0.02 0.01 0.01 0.01 0.01 0.01 0.01 0.01 0.02 0.02 0.02 0.02 0.02 0.03 0.03 0.03 0.04 0.05 0.05 0.04 0.04 0.04 0.04 0.05 0.05 0.05 0.06 0.06 0.04 0.03 0.03 0.03 0.02 0.02 0.01 0.01 0.01 0.02 0.02 0.02 0.02 0.02 0.02
0.02 0.02 0.01 0.01 0.01 0.01 0.01 0.01 0.01 0.02 0.02 0.02 0.02 0.02 0.03 0.03 0.04 0.05 0.05 0.04 0.04 0.04 0.04 0.04 0.05 0.04 0.06 0.07 0.06 0.05 0.04 0.03 0.03 0.03 0.03 0.03 0.03 0.03 0.03 0.03 0.02 0.03 0.02
0.03 0.02 0.01 0.01 0.01 0.01 0.01 0.01 0.01 0.01 0.01 0.02 0.02 0.02 0.03 0.03 0.04 0.04 0.05 0.04 0.04 0.03 0.03 0.03 0.04 0.04 0.05 0.05 0.05 0.05 0.05 0.04 0.04 0.04 0.03 0.03 0.03 0.04 0.04 0.03 0.03 0.03 0.03
0.02 0.02 0.02 0.01 0.01 0.01 0.01 0.01 0.02 0.01 0.01 0.02 0.02 0.02 0.03 0.03 0.04 0.04 0.04 0.03 0.03 0.03 0.03 0.03 0.04 0.04 0.04 0.04 0.04 0.03 0.04 0.04 0.04 0.04 0.04 0.03 0.03 0.03 0.03 0.03 0.03 0.03 0.03
0.01 0.01 0.01 0.01 0.02 0.02 0.02 0.02 0.02 0.02 0.02 0.02 0.02 0.02 0.02 0.02 0.03 0.03 0.03 0.03 0.03 0.03 0.03 0.03 0.04 0.04 0.03 0.03 0.03 0.03 0.03 0.03 0.03 0.04 0.04 0.03 0.03 0.03 0.03 0.04 0.04 0.04 0.04
0.01 0.01 0.01 0.01 0.02 0.02 0.02 0.02 0.02 0.03 0.03 0.03 0.02 0.02 0.02 0.02 0.03 0.03 0.02 0.02 0.02 0.02 0.03 0.03 0.03 0.03 0.02 0.02 0.02 0.02 0.03 0.03 0.03 0.03 0.03 0.03 0.03 0.03 0.04 0.04 0.05 0.05 0.05
0.01 0.01 0.01 0.01 0.01 0.01 0.02 0.02 0.03 0.03 0.04 0.04 0.03 0.03 0.03 0.03 0.03 0.04 0.03 0.03 0.03 0.03 0.03 0.02 0.02 0.02 0.02 0.02 0.02 0.02 0.02 0.03 0.03 0.03 0.03 0.03 0.03 0.03 0.04 0.05 0.06 0.06 0.06
0.01 0.01 0.01 0.01 0.01 0.01 0.01 0.02 0.02 0.02 0.02 0.03 0.03 0.03 0.03 0.03 0.03 0.03 0.03 0.03 0.03 0.03 0.03 0.03 0.02 0.02 0.02 0.03 0.03 0.03 0.03 0.03 0.03 0.04 0.04 0.04 0.04 0.04 0.04 0.05 0.05 0.06 0.06
0.01 0.01 0.01 0.01 0.02 0.02 0.01 0.02 0.02 0.02 0.01 0.01 0.02 0.02 0.02 0.03 0.03 0.03 0.02 0.02 0.02 0.02 0.02 0.02 0.03 0.03 0.03 0.03 0.03 0.03 0.03 0.03 0.04 0.04 0.04 0.05 0.05 0.05 0.04 0.04 0.04 0.05 0.05
0.01 0.01 0.01 0.01 0.02 0.02 0.01 0.01 0.02 0.02 0.01 0.01 0.01 0.01 0.02 0.02 0.02 0.02 0.01 0.01 0.02 0.02 0.02 0.02 0.03 0.03 0.03 0.03 0.03 0.03 0.03 0.03 0.03 0.04 0.04 0.04 0.04 0.04 0.04 0.04 0.04 0.04 0.04
0.01 0.01 0.01 0.01 0.01 0.01 0.01 0.01 0.01 0.01 0.01 0.01 0.01 0.01 0.01 0.01 0.01 0.01 0.01 0.01 0.01 0.01 0.01 0.02 0.02 0.02 0.03 0.03 0.03 0.03 0.03 0.03 0.03 0.03 0.03 0.03 0.03 0.04 0.04 0.04 0.04 0.04 0.04
0.01 0.01 0.01 0.01 0.01 0.01 0.01 0.01 0.01 0.01 0.01 0.01 0.01 0.01 0.01 0.01 0.01 0.01 0.01 0.01 0.01 0.01 0.01 0.01 0.02 0.02 0.02 0.03 0.03 0.02 0.02 0.02 0.02 0.02 0.02 0.03 0.03 0.03 0.03 0.03 0.03 0.04 0.04
0.01 0.01 0.01 0.01 0.01 0.01 0.01 0.01 0.01 0.01 0.01 0.01 0.01 0.01 0.01 0.01 0.01 0.01 0.01 0.01 0.01 0.01 0.01 0.01 0.02 0.02 0.02 0.02 0.02 0.02 0.02 0.02 0.01 0.02 0.02 0.02 0.02 0.03 0.03 0.03 0.03 0.03 0.03
0.01 0.01 0.01 0.01 0.01 0.01 0.01 0.01 0.01 0.01 0.01 0.01 0.01 0.01 0.01 0.01 0.01 0.01 0.01 0.01 0.01 0.01 0.01 0.02 0.02 0.02 0.02 0.02 0.02 0.02 0.02 0.02 0.01 0.01 0.01 0.02 0.02 0.02 0.02 0.03 0.03 0.03 0.03
0.01 0.01 0.01 0.01 0.01 0.01 0.01 0.01 0.01 0.01 0.01 0.01 0.01 0.01 0.01 0.01 0.01 0.01 0.01 0.01 0.01 0.01 0.01 0.02 0.02 0.02 0.02 0.02 0.02 0.02 0.02 0.02 0.02 0.02 0.02 0.02 0.02 0.02 0.02 0.02 0.02 0.02 0.03
0.01 0.01 0.01 0.01 0.01 0.02 0.01 0.01 0.01 0.01 0.01 0.01 0.01 0.01 0.01 0.01 0.01 0.01 0.01 0.01 0.01 0.01 0.01 0.02 0.02 0.02 0.02 0.02 0.02 0.02 0.02 0.02 0.02 0.02 0.02 0.02 0.02 0.02 0.02 0.02 0.02 0.02 0.03
0.01 0.01 0.01 0.01 0.02 0.02 0.02 0.02 0.02 0.02 0.02 0.02 0.02 0.01 0.01 0.01 0.01 0.01 0.01 0.01 0.01 0.01 0.01 0.02 0.02 0.02 0.02 0.02 0.02 0.02 0.02 0.02 0.02 0.02 0.02 0.02 0.02 0.02 0.02 0.02 0.02 0.02 0.02
0.02 0.02 0.02 0.02 0.02 0.02 0.02 0.02 0.02 0.02 0.02 0.02 0.02 0.02 0.02 0.01 0.01 0.01 0.01 0.01 0.01 0.01 0.01 0.01 0.01 0.01 0.01 0.01 0.02 0.02 0.02 0.02 0.02 0.02 0.03 0.03 0.02 0.02 0.02 0.02 0.02 0.02 0.02
MSLP
1019.54 1020.47 1021.38 1022.24 1023.03 1023.71 1024.29 1024.75 1025.12 1025.38 1025.56 1025.64 1025.63 1025.53 1025.36 1025.12 1024.85 1024.57 1024.29 1024.05 1023.84 1023.65 1023.46 1023.25 1022.97 1022.61 1022.15 1021.58 1020.91 1020.16 1019.37 1018.56 1017.74 1016.91 1016.08 1015.21 1014.30 1013.32 1012.29 1011.20 1010.09 1008.98 1007.92
1019.30 1020.20 1021.09 1021.93 1022.69 1023.36 1023.93 1024.40 1024.79 1025.08 1025.29 1025.41 1025.44 1025.38 1025.23 1025.02 1024.75 1024.45 1024.15 1023.87 1023.60 1023.36 1023.14 1022.89 1022.62 1022.28 1021.86 1021.37 1020.80 1020.18 1019.51 1018.81 1018.09 1017.35 1016.57 1015.73 1014.83 1013.84 1012.78 1011.66 1010.51 1009.37 1008.27
1018.93 1019.82 1020.67 1021.48 1022.22 1022.86 1023.43 1023.91 1024.32 1024.64 1024.90 1025.07 1025.15 1025.15 1025.05 1024.87 1024.63 1024.35 1024.04 1023.74 1023.46 1023.19 1022.93 1022.68 1022.39 1022.07 1021.70 1021.26 1020.77 1020.23 1019.66 1019.05 1018.42 1017.75 1017.03 1016.25 1015.37 1014.41 1013.36 1012.24 1011.08 1009.92 1008.79
1018.39 1019.27 1020.10 1020.89 1021.60 1022.24 1022.80 1023.30 1023.74 1024.11 1024.42 1024.66 1024.81 1024.87 1024.83 1024.71 1024.51 1024.26 1023.98 1023.69 1023.41 1023.14 1022.88 1022.61 1022.34 1022.03 1021.67 1021.27 1020.82 1020.33 1019.82 1019.27 1018.70 1018.10 1017.44 1016.71 1015.89 1014.98 1013.97 1012.89 1011.75 1010.61 1009.48
1017.67 1018.55 1019.39 1020.16 1020.87 1021.51 1022.10 1022.63 1023.11 1023.55 1023.92 1024.23 1024.45 1024.58 1024.62 1024.55 1024.41 1024.21 1023.96 1023.71 1023.45 1023.19 1022.95 1022.69 1022.42 1022.12 1021.78 1021.38 1020.95 1020.48 1019.98 1019.47 1018.93 1018.37 1017.76 1017.09 1016.34 1015.51 1014.58 1013.56 1012.49 1011.40 1010.30
1016.79 1017.70 1018.55 1019.34 1020.07 1020.74 1021.36 1021.95 1022.49 1023.00 1023.45 1023.83 1024.13 1024.33 1024.43 1024.43 1024.34 1024.18 1023.99 1023.77 1023.55 1023.33 1023.10 1022.87 1022.61 1022.32 1021.97 1021.57 1021.13 1020.65 1020.15 1019.63 1019.10 1018.55 1017.99 1017.38 1016.70 1015.96 1015.13 1014.22 1013.25 1012.23 1011.20
1015.82 1016.77 1017.66 1018.49 1019.25 1019.97 1020.65 1021.30 1021.92 1022.50 1023.03 1023.49 1023.86 1024.12 1024.27 1024.32 1024.28 1024.17 1024.02 1023.85 1023.67 1023.48 1023.30 1023.09 1022.85 1022.56 1022.22 1021.81 1021.34 1020.84 1020.31 1019.77 1019.22 1018.68 1018.14 1017.58 1016.98 1016.32 1015.60 1014.81 1013.96 1013.05 1012.10
1014.82 1015.82 1016.75 1017.63 1018.45 1019.23 1019.98 1020.70 1021.40 1022.06 1022.67 1023.19 1023.62 1023.93 1024.12 1024.21 1024.20 1024.13 1024.02 1023.89 1023.75 1023.61 1023.47 1023.30 1023.09 1022.82 1022.48 1022.07 1021.59 1021.06 1020.49 1019.92 1019.35 1018.80 1018.26 1017.73 1017.19 1016.62 1016.00 1015.32 1014.59 1013.79 1012.95
1013.86 1014.90 1015.88 1016.80 1017.68 1018.52 1019.34 1020.14 1020.91 1021.64 1022.30 1022.88 1023.35 1023.69 1023.92 1024.03 1024.05 1024.01 1023.93 1023.85 1023.76 1023.67 1023.58 1023.46 1023.30 1023.07 1022.75 1022.35 1021.87 1021.32 1020.74 1020.13 1019.54 1018.97 1018.43 1017.91 1017.40 1016.88 1016.34 1015.75 1015.12 1014.42 1013.68
1012.98 1014.04 1015.05 1016.01 1016.93 1017.83 1018.70 1019.56 1020.39 1021.17 1021.88 1022.50 1022.99 1023.36 1023.60 1023.74 1023.79 1023.78 1023.74 1023.70 1023.67 1023.65 1023.62 1023.57 1023.47 1023.30 1023.03 1022.67 1022.21 1021.67 1021.08 1020.46 1019.85 1019.25 1018.69 1018.16 1017.66 1017.16 1016.66 1016.13 1015.56 1014.95 1014.29
1012.19 1013.25 1014.27 1015.25 1016.19 1017.12 1018.04 1018.93 1019.79 1020.61 1021.34 1021.98 1022.49 1022.87 1023.14 1023.30 1023.38 1023.41 1023.43 1023.45 1023.49 1023.54 1023.60 1023.64 1023.62 1023.53 1023.34 1023.03 1022.62 1022.12 1021.55 1020.94 1020.31 1019.70 1019.11 1018.55 1018.03 1017.52 1017.01 1016.50 1015.97 1015.40 1014.80
1011.51 1012.54 1013.54 1014.51 1015.46 1016.39 1017.32 1018.22 1019.10 1019.92 1020.66 1021.30 1021.82 1022.22 1022.51 1022.70 1022.83 1022.92 1023.00 1023.10 1023.23 1023.38 1023.54 1023.68 1023.76 1023.77 1023.67 1023.45 1023.12 1022.68 1022.15 1021.57 1020.95 1020.32 1019.71 1019.11 1018.54 1017.99 1017.45 1016.92 1016.37 1015.82 1015.24
1010.92 1011.90 1012.86 1013.81 1014.74 1015.65 1016.56 1017.46 1018.32 1019.12 1019.85 1020.49 1021.01 1021.43 1021.75 1021.99 1022.17 1022.34 1022.51 1022.70 1022.93 1023.19 1023.45 1023.70 1023.89 1024.01 1024.02 1023.90 1023.66 1023.31 1022.85 1022.31 1021.72 1021.10 1020.47 1019.84 1019.21 1018.61 1018.01 1017.42 1016.84 1016.26 1015.69
1010.43 1011.35 1012.26 1013.16 1014.05 1014.94 1015.81 1016.67 1017.50 1018.27 1018.98 1019.60 1020.13 1020.56 1020.91 1021.21 1021.47 1021.72 1021.98 1022.28 1022.62 1022.98 1023.35 1023.70 1024.00 1024.22 1024.34 1024.33 1024.19 1023.93 1023.56 1023.10 1022.56 1021.96 1021.33 1020.68 1020.02 1019.35 1018.70 1018.05 1017.41 1016.80 1016.20
1010.04 1010.89 1011.75 1012.59 1013.44 1014.28 1015.11 1015.92 1016.70 1017.43 1018.11 1018.71 1019.23 1019.68 1020.08 1020.43 1020.76 1021.10 1021.46 1021.85 1022.28 1022.74 1023.20 1023.64 1024.03 1024.35 1024.56 1024.66 1024.63 1024.47 1024.20 1023.83 1023.36 1022.82 1022.22 1021.58 1020.90 1020.20 1019.50 1018.79 1018.10 1017.44 1016.82
1009.76 1010.54 1011.33 1012.12 1012.92 1013.70 1014.48 1015.24 1015.97 1016.66 1017.29 1017.87 1018.39 1018.85 1019.28 1019.68 1020.08 1020.49 1020.93 1021.41 1021.92 1022.45 1022.98 1023.49 1023.95 1024.33 1024.62 1024.81 1024.88 1024.83 1024.66 1024.40 1024.03 1023.58 1023.05 1022.45 1021.79 1021.10 1020.37 1019.64 1018.91 1018.21 1017.55
1009.56 1010.28 1011.01 1011.74 1012.48 1013.22 1013.94 1014.64 1015.32 1015.95 1016.55 1017.10 1017.60 1018.07 1018.52 1018.96 1019.41 1019.88 1020.39 1020.92 1021.48 1022.06 1022.63 1023.17 1023.67 1024.11 1024.46 1024.72 1024.88 1024.93 1024.88 1024.73 1024.49 1024.15 1023.72 1023.20 1022.62 1021.96 1021.26 1020.53 1019.79 1019.07 1018.39
1009.44 1010.07 1010.73 1011.41 1012.09 1012.77 1013.43 1014.08 1014.70 1015.29 1015.84 1016.36 1016.84 1017.31 1017.77 1018.24 1018.72 1019.23 1019.77 1020.33 1020.92 1021.52 1022.11 1022.67 1023.19 1023.65 1024.05 1024.36 1024.60 1024.76 1024.82 1024.80 1024.69 1024.49 1024.19 1023.80 1023.31 1022.74 1022.10 1021.41 1020.69 1019.98 1019.28
1009.36 1009.89 1010.46 1011.06 1011.67 1012.29 1012.90 1013.49 1014.05 1014.59 1015.10 1015.59 1016.05 1016.51 1016.97 1017.45 1017.94 1018.47 1019.03 1019.61 1020.20 1020.80 1021.39 1021.96 1022.48 1022.96 1023.39 1023.77 1024.08 1024.33 1024.51 1024.62 1024.65 1024.60 1024.45 1024.19 1023.84 1023.38 1022.84 1022.22 1021.56 1020.87 1020.19
1009.27 1009.68 1010.15 1010.65 1011.18 1011.72 1012.26 1012.79 1013.30 1013.79 1014.26 1014.71 1015.15 1015.60 1016.06 1016.53 1017.04 1017.57 1018.13 1018.71 1019.31 1019.90 1020.49 1021.05 1021.59 1022.09 1022.55 1022.98 1023.36 1023.70 1024.00 1024.24 1024.41 1024.50 1024.50 1024.40 1024.19 1023.86 1023.43 1022.92 1022.33 1021.70 1021.04
1009.16 1009.43 1009.76 1010.14 1010.57 1011.02 1011.48 1011.94 1012.39 1012.84 1013.27 1013.69 1014.11 1014.54 1014.99 1015.47 1015.97 1016.51 1017.07 1017.66 1018.26 1018.85 1019.44 1020.02 1020.57 1021.10 1021.61 1022.09 1022.54 1022.97 1023.37 1023.73 1024.03 1024.26 1024.40 1024.44 1024.37 1024.18 1023.87 1023.47 1022.97 1022.41 1021.81
1009.02 1009.12 1009.30 1009.55 1009.85 1010.20 1010.57 1010.96 1011.35 1011.74 1012.14 1012.53 1012.94 1013.36 1013.81 1014.28 1014.79 1015.33 1015.90 1016.50 1017.10 1017.72 1018.33 1018.93 1019.51 1020.08 1020.64 1021.18 1021.71 1022.22 1022.72 1023.17 1023.58 1023.93 1024.19 1024.36 1024.41 1024.34 1024.15 1023.86 1023.46 1022.98 1022.45
1008.89 1008.81 1008.83 1008.93 1009.10 1009.33 1009.61 1009.92 1010.25 1010.59 1010.95 1011.32 1011.71 1012.13 1012.57 1013.05 1013.56 1014.11 1014.70 1015.31 1015.94 1016.58 1017.22 1017.86 1018.49 1019.11 1019.73 1020.34 1020.93 1021.52 1022.09 1022.63 1023.13 1023.56 1023.92 1024.17 1024.33 1024.36 1024.28 1024.08 1023.79 1023.40 1022.94
1008.82 1008.58 1008.43 1008.39 1008.43 1008.55 1008.73 1008.96 1009.23 1009.52 1009.84 1010.19 1010.56 1010.97 1011.41 1011.89 1012.41 1012.97 1013.57 1014.20 1014.85 1015.52 1016.20 1016.88 1017.57 1018.25 1018.92 1019.59 1020.25 1020.90 1021.53 1022.13 1022.68 1023.17 1023.59 1023.92 1024.15 1024.27 1024.27 1024.16 1023.96 1023.67 1023.29
1008.89 1008.50 1008.23 1008.05 1007.98 1007.99 1008.08 1008.24 1008.44 1008.69 1008.97 1009.29 1009.65 1010.04 1010.47 1010.94 1011.46 1012.02 1012.63 1013.26 1013.94 1014.63 1015.34 1016.07 1016.79 1017.52 1018.25 1018.96 1019.67 1020.36 1021.03 1021.66 1022.25 1022.78 1023.24 1023.61 1023.89 1024.07 1024.14 1024.11 1023.99 1023.79 1023.51
1009.14 1008.66 1008.29 1008.01 1007.85 1007.77 1007.79 1007.87 1008.02 1008.22 1008.47 1008.76 1009.09 1009.45 1009.87 1010.32 1010.82 1011.37 1011.96 1012.59 1013.27 1013.97 1014.69 1015.44 1016.19 1016.94 1017.70 1018.45 1019.18 1019.89 1020.58 1021.22 1021.82 1022.37 1022.84 1023.24 1023.55 1023.78 1023.91 1023.95 1023.91 1023.79 1023.59
Thickness
5429 5429 5430 5431 5432 5433 5434 5435 5436 5437 5439 5442 5444 5445 5445 5446 5447 5448 5448 5447 5448 5447 5446 5446 5446 5445 5444 5443 5441 5440 5438 5436 5437 5439 5437 5437 5436 5436 5437 5437 5438 5439 5440
5418 5418 5419 5419 5421 5422 5423 5424 5425 5427 5428 5431 5433 5435 5436 5436 5437 5438 5439 5439 5439 5439 5438 5437 5437 5436 5436 5435 5433 5432 5430 5428 5426 5427 5427 5426 5427 5427 5426 5426 5427 5428 5429
5406 5406 5407 5408 5409 5411 5412 5413 5415 5416 5417 5420 5422 5424 5425 5426 5427 5428 5429 5429 5430 5430 5429 5428 5428 5427 5427 5427 5426 5424 5422 5420 5417 5416 5417 5417 5416 5416 5416 5416 5417 5418 5419
5393 5395 5396 5397 5398 5399 5401 5402 5403 5404 5406 5408 5410 5412 5413 5414 5416 5417 5418 5418 5420 5420 5420 5420 5419 5419 5419 5418 5418 5416 5413 5411 5409 5407 5407 5407 5407 5406 5405 5405 5406 5407 5408
5380 5382 5383 5384 5386 5387 5388 5389 5391 5392 5394 5396 5397 5399 5400 5402 5404 5405 5406 5407 5408 5409 5409 5410 5410 5410 5410 5409 5408 5407 5404 5402 5400 5399 5398 5397 5398 5397 5396 5395 5394 5395 5397
5367 5368 5369 5370 5372 5374 5375 5376 5378 5379 5381 5382 5384 5386 5388 5390 5392 5393 5394 5396 5398 5399 5400 5400 5400 5400 5399 5399 5398 5397 5395 5393 5392 5390 5390 5389 5390 5389 5387 5385 5383 5383 5386
5354 5355 5355 5356 5358 5360 5362 5363 5365 5366 5368 5369 5371 5374 5376 5378 5381 5382 5383 5385 5387 5388 5389 5390 5390 5390 5389 5389 5388 5387 5385 5384 5384 5382 5381 5381 5380 5380 5377 5376 5375 5374 5376
5341 5341 5342 5343 5345 5346 5348 5349 5351 5352 5354 5356 5359 5361 5363 5366 5368 5371 5372 5374 5375 5377 5378 5379 5379 5379 5379 5378 5377 5376 5375 5375 5374 5373 5373 5372 5371 5370 5369 5368 5367 5366 5367
5327 5327 5328 5329 5331 5332 5334 5336 5337 5339 5342 5343 5345 5347 5350 5353 5356 5359 5361 5362 5363 5365 5366 5367 5368 5368 5369 5368 5367 5366 5365 5364 5363 5362 5363 5363 5363 5362 5361 5359 5358 5357 5358
5312 5313 5314 5316 5318 5320 5322 5323 5325 5327 5329 5331 5332 5334 5336 5339 5343 5346 5348 5350 5351 5352 5354 5355 5356 5358 5358 5358 5357 5356 5355 5354 5352 5352 5353 5353 5353 5353 5352 5351 5350 5348 5348
5298 5299 5301 5303 5305 5307 5309 5311 5313 5314 5316 5318 5320 5322 5324 5326 5330 5333 5335 5336 5338 5339 5341 5342 5344 5346 5347 5347 5347 5346 5346 5344 5343 5342 5342 5343 5343 5343 5343 5343 5342 5341 5340
5285 5286 5288 5289 5291 5294 5296 5298 5299 5300 5302 5304 5307 5309 5311 5313 5316 5319 5322 5324 5325 5327 5329 5330 5332 5334 5335 5335 5335 5335 5334 5333 5332 5332 5332 5332 5333 5333 5334 5333 5333 5333 5333
5271 5273 5274 5276 5278 5280 5282 5284 5285 5287 5289 5292 5293 5296 5298 5299 5302 5305 5308 5311 5313 5315 5316 5318 5319 5320 5321 5321 5321 5322 5321 5320 5321 5321 5322 5322 5322 5322 5322 5323 5324 5324 5325
5257 5259 5261 5262 5265 5266 5267 5269 5271 5273 5275 5278 5280 5282 5284 5286 5289 5292 5295 5297 5300 5302 5303 5305 5306 5307 5307 5308 5307 5307 5307 5307 5308 5309 5310 5310 5311 5311 5311 5312 5313 5313 5314
5243 5245 5246 5248 5251 5252 5253 5254 5257 5260 5262 5265 5268 5269 5272 5275 5278 5280 5282 5285 5286 5289 5290 5291 5291 5292 5293 5293 5293 5293 5293 5294 5295 5296 5297 5298 5299 5300 5300 5301 5301 5301 5302
5229 5231 5232 5234 5236 5237 5239 5241 5243 5246 5249 5252 5255 5257 5259 5263 5266 5269 5271 5273 5275 5276 5277 5276 5276 5277 5277 5278 5278 5279 5280 5281 5282 5283 5284 5285 5286 5287 5288 5289 5289 5289 5291
5215 5216 5217 5219 5221 5223 5225 5227 5230 5232 5234 5237 5240 5242 5246 5249 5253 5255 5258 5260 5261 5262 5261 5262 5262 5262 5263 5264 5265 5266 5267 5268 5269 5270 5271 5272 5273 5274 5275 5276 5277 5277 5278
5202 5203 5204 5206 5207 5208 5210 5212 5214 5216 5219 5222 5225 5228 5231 5235 5238 5242 5244 5245 5244 5245 5246 5246 5247 5248 5249 5250 5252 5254 5255 5256 5257 5259 5259 5259 5260 5261 5263 5264 5264 5265 5267
5191 5192 5193 5193 5194 5195 5196 5197 5199 5201 5203 5206 5209 5213 5216 5219 5223 5226 5228 5228 5229 5229 5231 5232 5233 5234 5236 5237 5239 5241 5243 5244 5246 5247 5247 5248 5249 5249 5251 5252 5253 5254 5255
5180 5181 5181 5182 5182 5182 5183 5185 5186 5187 5189 5192 5195 5198 5201 5204 5207 5209 5211 5213 5214 5215 5217 5219 5220 5222 5224 5225 5227 5228 5230 5232 5234 5235 5236 5237 5238 5239 5240 5241 5243 5244 5246
5170 5169 5170 5170 5170 5171 5171 5172 5174 5175 5177 5179 5182 5185 5189 5190 5192 5194 5196 5198 5200 5202 5204 5207 5208 5210 5211 5213 5215 5216 5218 5220 5222 5223 5225 5226 5227 5229 5230 5232 5233 5234 5236
5160 5159 5159 5159 5159 5160 5160 5161 5162 5164 5166 5167 5170 5172 5176 5177 5178 5180 5183 5185 5188 5190 5192 5194 5197 5198 5200 5202 5204 5205 5206 5209 5210 5212 5214 5215 5216 5218 5220 5221 5223 5225 5226
5152 5151 5150 5150 5149 5150 5150 5151 5152 5153 5155 5157 5159 5160 5162 5163 5166 5168 5171 5173 5176 5178 5181 5183 5186 5188 5190 5192 5193 5195 5196 5199 5200 5201 5203 5205 5206 5207 5209 5211 5213 5214 5216
5143 5142 5142 5141 5141 5141 5141 5142 5143 5144 5145 5146 5148 5149 5151 5153 5155 5157 5159 5162 5165 5167 5170 5172 5175 5178 5180 5182 5184 5186 5188 5189 5191 5192 5194 5195 5196 5197 5199 5201 5203 5205 5207
5135 5134 5133 5133 5133 5133 5133 5134 5134 5135 5136 5137 5138 5140 5141 5143 5145 5147 5149 5151 5154 5157 5160 5162 5165 5168 5170 5173 5175 5176 5179 5180 5182 5183 5184 5185 5187 5188 5190 5192 5194 5195 5197
5128 5127 5126 5126 5126 5126 5126 5126 5127 5127 5128 5128 5129 5130 5132 5133 5135 5137 5139 5141 5144 5147 5150 5153 5155 5158 5160 5163 5165 5167 5169 5171 5173 5175 5176 5177 5179 5180 5181 5183 5184 5186 5187